STARLINK-1080, 44961

Orbit data source: Space-Track

STARLINK-1080, 44961 is a payload satellite owned by SpaceX/Seattle (US) in LEO that was launched on Tue, 07 Jan 2020 UTC via an FALCON 9 launch vehicle from the Air Force Eastern Test Range (AFETR). Payload-class satellites include a variety of spacecraft equipped with specific instruments for various scientific and technological missions. These include communications satellites like Starlink; space stations such as the ISS; scientific satellites like the Hubble; Earth observation satellites from companies like Planet Labs, Umbra, and HawkEye 360; GPS; miniature CubeSats for education and research; and military/defense satellites.

Loading next visibility...
Identifier
44961, 2020-001AZ
Orbit
LEO
Country
Flag of USUS
Related business
Manufacturer
SpaceX/Seattle
Mission
Partially operational Commercial Communications
Bus & Motor
STARLINK, Unknown motor
Mass
260 kg wet, ~248 kg dry
Launch date (UTC)
2020-01-07 (6 years ago)
Launch vehicle
FALCON 9
Launch site
Air Force Eastern Test Range (AFETR)
Object type
Payload
Rocket body
Debris
Shape & HBR
Box + 1 Pan, 10.1 m
Radar Cross Section
13.562 m², Large (>1 m²)

Expand to show TLE details & history
Last TLE update: 11 hours ago

TLE from 11 hours ago
0 STARLINK-1080
1 44961U 20001AZ  26123.41942534  .00127005  00000-0  17381-2 0  9990
2 44961  53.0478  24.8053 0000334 184.4267 175.6741 15.56518224349171
Epoch: 2026-05-03T10:03Z
TLE epoch observation values (Epoch: 2026-05-03T10:03:58.349Z)
Latitude
-0°
Longitude
12.48894°
Altitude
398.866 km
Speed
7.672 km/s
True Right ascension
01h 39m 13s
True Declination
0° 00' 00"
Sunlit
Object was in daylight at epoch
Visualization orbit readout
Latitude
Unknown
Longitude
Unknown
Altitude
Unknown
Speed
Unknown
Apparent Right ascension
Unknown
Apparent Declination
Unknown
Sunlit
N/A
Visualization observer readout
Local Sidereal Time
05:12:21
Azimuth
Unknown
Elevation
Unknown
Doppler factor
Unknown
Orbital elements
Apogee altitude
398.247 km
Perigee altitude
397.794 km
Semi-major axis
6,776.158 km
Eccentricity
0.00003
Inclination
53.0478°
RAAN
24.8053°
Arg. of periapsis
184.4267°
True anomaly
175.67439°
Mean anomaly
175.6741°
Eccentric anomaly
175.67424°
Mean motion
3.89106 °/min
Orbital period
92.52 mins
BSTAR
0.0017381
Loading maneuver chart data...
Computing Atmospheric mass density...

Documentation

Showing up to 5 results
|